Time,TemperatureF,DewpointF,PressureIn,WindDirection,WindDirectionDegrees,WindSpeedMPH,WindSpeedGustMPH,Humidity,HourlyPrecipIn,Conditions,Clouds,dailyrainin,SoftwareType,DateUTC
2013-01-31 04:09:00,20.5,3.0,29.14,WSW,248,4.0,4.9,46,0.00,,,-99.99,FreeWX 2.04,2013-01-31 09:09:00,
2013-01-31 04:14:00,20.5,2.5,29.14,West,276,5.0,8.7,45,0.00,,,-99.99,FreeWX 2.04,2013-01-31 09:14:00,
2013-01-31 07:33:00,17.1,-3.1,29.29,West,267,6.0,7.4,40,0.00,,,-99.99,FreeWX 2.04,2013-01-31 12:33:00,
2013-01-31 07:39:00,17.1,-2.6,29.29,West,280,3.0,7.8,41,0.00,,,-99.99,FreeWX 2.04,2013-01-31 12:39:00,
2013-01-31 07:44:00,16.9,-2.7,29.29,WNW,291,4.0,9.6,41,0.00,,,-99.99,FreeWX 2.04,2013-01-31 12:44:00,
2013-01-31 07:49:00,16.7,-2.9,29.32,WNW,282,3.0,6.9,41,0.00,,,-99.99,FreeWX 2.04,2013-01-31 12:49:00,
2013-01-31 07:54:00,16.7,-2.4,29.32,WNW,283,3.0,11.2,42,0.00,,,-99.99,FreeWX 2.04,2013-01-31 12:54:00,
2013-01-31 07:59:00,16.7,-1.8,29.32,WNW,290,3.0,8.7,43,0.00,,,-99.99,FreeWX 2.04,2013-01-31 12:59:00,
2013-01-31 08:04:00,16.7,-1.3,29.32,WNW,282,3.0,8.7,44,0.00,,,-99.99,FreeWX 2.04,2013-01-31 13:04:00,
2013-01-31 08:09:00,16.7,-1.3,29.32,WNW,282,4.0,6.9,44,0.00,,,-99.99,FreeWX 2.04,2013-01-31 13:09:00,
2013-01-31 08:14:00,16.7,-1.3,29.32,WNW,283,4.0,6.7,44,0.00,,,-99.99,FreeWX 2.04,2013-01-31 13:14:00,
2013-01-31 08:19:00,16.7,-1.3,29.32,WNW,282,4.0,9.2,44,0.00,,,-99.99,FreeWX 2.04,2013-01-31 13:19:00,
2013-01-31 08:24:00,16.7,-1.8,29.32,West,276,3.0,6.7,43,0.00,,,-99.99,FreeWX 2.04,2013-01-31 13:24:00,
2013-01-31 08:29:00,17.1,-1.1,29.32,WNW,291,2.0,4.5,44,0.00,,,-99.99,FreeWX 2.04,2013-01-31 13:29:00,
2013-01-31 08:34:00,17.2,-0.9,29.35,NW,304,2.0,9.2,44,0.00,,,-99.99,FreeWX 2.04,2013-01-31 13:34:00,
2013-01-31 08:39:00,17.4,-1.1,29.35,WNW,297,3.0,7.8,43,0.00,,,-99.99,FreeWX 2.04,2013-01-31 13:39:00,
2013-01-31 08:44:00,17.6,-1.5,29.35,WNW,290,4.0,7.4,42,0.00,,,-99.99,FreeWX 2.04,2013-01-31 13:44:00,
2013-01-31 08:49:00,17.6,-2.6,29.35,WNW,295,4.0,7.4,40,0.00,,,-99.99,FreeWX 2.04,2013-01-31 13:49:00,
2013-01-31 08:54:00,17.8,-2.9,29.35,WNW,299,4.0,6.3,39,0.00,,,-99.99,FreeWX 2.04,2013-01-31 13:54:00,
2013-01-31 08:59:00,18.0,-2.7,29.35,WNW,284,4.0,7.8,39,0.00,,,-99.99,FreeWX 2.04,2013-01-31 13:59:00,
2013-01-31 09:04:00,18.1,-3.1,29.35,West,278,3.0,6.7,38,0.00,,,-99.99,FreeWX 2.04,2013-01-31 14:04:00,
2013-01-31 09:09:00,18.5,-2.2,29.35,West,277,2.0,5.8,39,0.00,,,-99.99,FreeWX 2.04,2013-01-31 14:09:00,
2013-01-31 09:14:00,18.9,-2.6,29.35,WNW,284,3.0,6.9,38,0.00,,,-99.99,FreeWX 2.04,2013-01-31 14:14:00,
2013-01-31 09:19:00,19.0,-3.5,29.38,WNW,295,4.0,8.7,36,0.00,,,-99.99,FreeWX 2.04,2013-01-31 14:19:00,
2013-01-31 09:24:00,19.2,-3.8,29.38,WNW,300,4.0,9.6,35,0.00,,,-99.99,FreeWX 2.04,2013-01-31 14:24:00,
2013-01-31 09:29:00,19.6,-3.6,29.38,WNW,298,4.0,7.4,35,0.00,,,-99.99,FreeWX 2.04,2013-01-31 14:29:00,
2013-01-31 09:34:00,19.8,-3.5,29.38,WNW,294,3.0,8.3,35,0.00,,,-99.99,FreeWX 2.04,2013-01-31 14:34:00,
2013-01-31 09:39:00,20.1,-3.6,29.38,WNW,288,3.0,7.4,34,0.00,,,-99.99,FreeWX 2.04,2013-01-31 14:39:00,
2013-01-31 09:44:00,20.1,-3.6,29.38,WNW,292,4.0,12.5,34,0.00,,,-99.99,FreeWX 2.04,2013-01-31 14:44:00,
2013-01-31 09:49:00,20.1,-3.6,29.38,WNW,288,3.0,7.4,34,0.00,,,-99.99,FreeWX 2.04,2013-01-31 14:49:00,
2013-01-31 09:54:00,20.5,-3.5,29.38,West,268,3.0,12.1,34,0.00,,,-99.99,FreeWX 2.04,2013-01-31 14:54:00,
2013-01-31 09:59:00,21.0,-2.9,29.38,West,263,3.0,12.5,34,0.00,,,-99.99,FreeWX 2.04,2013-01-31 14:59:00,
2013-01-31 10:04:00,20.8,-3.6,29.38,West,273,3.0,11.6,33,0.00,,,-99.99,FreeWX 2.04,2013-01-31 15:04:00,
2013-01-31 10:09:00,20.8,-3.6,29.38,NW,307,2.0,5.8,33,0.00,,,-99.99,FreeWX 2.04,2013-01-31 15:09:00,
2013-01-31 10:14:00,20.8,-3.6,29.38,NW,311,3.0,10.1,33,0.00,,,-99.99,FreeWX 2.04,2013-01-31 15:14:00,
2013-01-31 10:19:00,21.0,-3.5,29.41,WNW,298,3.0,7.8,33,0.00,,,-99.99,FreeWX 2.04,2013-01-31 15:19:00,
2013-01-31 10:24:00,21.2,-3.3,29.41,WNW,301,2.0,6.9,33,0.00,,,-99.99,FreeWX 2.04,2013-01-31 15:24:00,
2013-01-31 10:29:00,21.2,-3.3,29.41,WNW,300,2.0,6.7,33,0.00,,,-99.99,FreeWX 2.04,2013-01-31 15:29:00,
2013-01-31 10:34:00,21.4,-3.8,29.41,WNW,286,3.0,7.4,32,0.00,,,-99.99,FreeWX 2.04,2013-01-31 15:34:00,
2013-01-31 10:39:00,21.0,-5.4,29.41,WNW,293,4.0,13.4,30,0.00,,,-99.99,FreeWX 2.04,2013-01-31 15:39:00,
2013-01-31 10:44:00,21.4,-5.3,29.41,NW,307,4.0,10.1,30,0.00,,,-99.99,FreeWX 2.04,2013-01-31 15:44:00,
2013-01-31 10:49:00,21.9,-4.7,29.41,WNW,302,3.0,11.2,30,0.00,,,-99.99,FreeWX 2.04,2013-01-31 15:49:00,
2013-01-31 10:54:00,21.9,-4.7,29.41,WNW,301,3.0,13.4,30,0.00,,,-99.99,FreeWX 2.04,2013-01-31 15:54:00,
2013-01-31 10:59:00,21.6,-7.2,29.41,NW,305,4.0,9.6,27,0.00,,,-99.99,FreeWX 2.04,2013-01-31 15:59:00,
2013-01-31 11:04:00,21.7,-4.9,29.41,NW,304,3.0,10.1,30,0.00,,,-99.99,FreeWX 2.04,2013-01-31 16:04:00,
2013-01-31 11:09:00,22.1,-4.5,29.41,WNW,303,2.0,7.4,30,0.00,,,-99.99,FreeWX 2.04,2013-01-31 16:09:00,
2013-01-31 11:14:00,22.5,-4.2,29.41,NW,308,2.0,8.3,30,0.00,,,-99.99,FreeWX 2.04,2013-01-31 16:14:00,
2013-01-31 11:19:00,22.6,-4.0,29.44,NW,304,2.0,6.7,30,0.00,,,-99.99,FreeWX 2.04,2013-01-31 16:19:00,
2013-01-31 11:24:00,23.2,-3.6,29.44,WNW,287,2.0,6.7,30,0.00,,,-99.99,FreeWX 2.04,2013-01-31 16:24:00,
2013-01-31 11:29:00,23.4,-3.5,29.44,WNW,282,1.0,6.7,30,0.00,,,-99.99,FreeWX 2.04,2013-01-31 16:29:00,
2013-01-31 11:39:00,24.4,-3.3,29.44,West,279,1.0,6.9,29,0.00,,,-99.99,FreeWX 2.04,2013-01-31 16:39:00,
2013-01-31 11:44:00,25.2,-2.6,29.44,WNW,294,1.0,6.9,29,0.00,,,-99.99,FreeWX 2.04,2013-01-31 16:44:00,
2013-01-31 11:49:00,24.8,-4.4,29.44,NW,305,2.0,6.9,27,0.00,,,-99.99,FreeWX 2.04,2013-01-31 16:49:00,
2013-01-31 11:54:00,25.2,-4.0,29.44,WNW,287,1.0,7.4,27,0.00,,,-99.99,FreeWX 2.04,2013-01-31 16:54:00,
2013-01-31 11:59:00,25.3,-4.0,29.44,WNW,285,1.0,6.7,27,0.00,,,-99.99,FreeWX 2.04,2013-01-31 16:59:00,
2013-01-31 12:04:00,25.5,-3.8,29.44,WNW,292,1.0,6.3,27,0.00,,,-99.99,FreeWX 2.04,2013-01-31 17:04:00,
2013-01-31 12:09:00,25.0,-4.2,29.44,WNW,289,1.0,6.3,27,0.00,,,-99.99,FreeWX 2.04,2013-01-31 17:09:00,
2013-01-31 12:14:00,24.6,-4.5,29.44,WNW,290,1.0,7.8,27,0.00,,,-99.99,FreeWX 2.04,2013-01-31 17:14:00,
2013-01-31 12:19:00,23.9,-5.1,29.44,North,-999,0.0,6.7,27,0.00,,,-99.99,FreeWX 2.04,2013-01-31 17:19:00,
2013-01-31 12:24:00,23.9,-3.6,29.44,North,-999,0.0,5.4,29,0.00,,,-99.99,FreeWX 2.04,2013-01-31 17:24:00,
2013-01-31 12:29:00,23.7,-5.3,29.44,North,-999,0.0,4.5,27,0.00,,,-99.99,FreeWX 2.04,2013-01-31 17:29:00,
2013-01-31 12:34:00,23.0,-6.0,29.44,North,-999,0.0,5.8,27,0.00,,,-99.99,FreeWX 2.04,2013-01-31 17:34:00,
2013-01-31 12:39:00,22.6,-6.3,29.44,NW,310,2.0,9.2,27,0.00,,,-99.99,FreeWX 2.04,2013-01-31 17:39:00,
2013-01-31 12:44:00,22.8,-6.2,29.44,WNW,291,2.0,9.6,27,0.00,,,-99.99,FreeWX 2.04,2013-01-31 17:44:00,
2013-01-31 12:49:00,22.6,-6.3,29.44,WNW,290,2.0,7.8,27,0.00,,,-99.99,FreeWX 2.04,2013-01-31 17:49:00,
2013-01-31 12:54:00,22.8,-6.2,29.44,NW,304,2.0,9.2,27,0.00,,,-99.99,FreeWX 2.04,2013-01-31 17:54:00,
2013-01-31 12:59:00,23.0,-6.0,29.44,WNW,296,1.0,10.1,27,0.00,,,-99.99,FreeWX 2.04,2013-01-31 17:59:00,
2013-01-31 13:04:00,23.0,-6.0,29.44,NW,310,1.0,7.4,27,0.00,,,-99.99,FreeWX 2.04,2013-01-31 18:04:00,
2013-01-31 13:09:00,22.3,-6.5,29.44,NW,314,1.0,9.2,27,0.00,,,-99.99,FreeWX 2.04,2013-01-31 18:09:00,
2013-01-31 13:14:00,22.5,-6.3,29.44,WNW,298,1.0,6.3,27,0.00,,,-99.99,FreeWX 2.04,2013-01-31 18:14:00,
2013-01-31 13:19:00,22.1,-6.7,29.44,North,-999,0.0,8.7,27,0.00,,,-99.99,FreeWX 2.04,2013-01-31 18:19:00,
2013-01-31 13:24:00,22.1,-6.7,29.44,WNW,285,2.0,11.2,27,0.00,,,-99.99,FreeWX 2.04,2013-01-31 18:24:00,
2013-01-31 13:29:00,22.1,-6.7,29.44,WNW,297,2.0,7.4,27,0.00,,,-99.99,FreeWX 2.04,2013-01-31 18:29:00,
2013-01-31 13:34:00,23.0,-6.0,29.47,NNW,330,1.0,5.8,27,0.00,,,-99.99,FreeWX 2.04,2013-01-31 18:34:00,
2013-01-31 13:39:00,23.5,-3.3,29.47,North,-999,0.0,4.9,30,0.00,,,-99.99,FreeWX 2.04,2013-01-31 18:39:00,
2013-01-31 13:44:00,23.2,-5.8,29.47,WNW,283,1.0,9.2,27,0.00,,,-99.99,FreeWX 2.04,2013-01-31 18:44:00,
2013-01-31 13:49:00,22.6,-6.3,29.44,WNW,282,2.0,9.2,27,0.00,,,-99.99,FreeWX 2.04,2013-01-31 18:49:00,
2013-01-31 13:54:00,23.9,-5.1,29.44,WNW,290,1.0,9.2,27,0.00,,,-99.99,FreeWX 2.04,2013-01-31 18:54:00,
2013-01-31 13:59:00,24.4,-4.7,29.44,WNW,293,1.0,6.3,27,0.00,,,-99.99,FreeWX 2.04,2013-01-31 18:59:00,
2013-01-31 14:04:00,24.8,-4.4,29.47,WNW,298,1.0,10.1,27,0.00,,,-99.99,FreeWX 2.04,2013-01-31 19:04:00,
2013-01-31 14:09:00,24.4,-4.7,29.47,WNW,296,2.0,8.7,27,0.00,,,-99.99,FreeWX 2.04,2013-01-31 19:09:00,
2013-01-31 14:19:00,25.2,-4.0,29.47,WNW,283,1.0,6.9,27,0.00,,,-99.99,FreeWX 2.04,2013-01-31 19:19:00,
2013-01-31 14:24:00,25.0,-6.7,29.47,West,276,2.0,13.0,24,0.00,,,-99.99,FreeWX 2.04,2013-01-31 19:24:00,
2013-01-31 14:29:00,25.7,-3.6,29.47,WSW,256,1.0,4.9,27,0.00,,,-99.99,FreeWX 2.04,2013-01-31 19:29:00,
2013-01-31 14:34:00,24.8,-4.4,29.47,North,-999,0.0,9.6,27,0.00,,,-99.99,FreeWX 2.04,2013-01-31 19:34:00,
2013-01-31 14:39:00,23.9,-5.1,29.47,NNW,332,1.0,6.9,27,0.00,,,-99.99,FreeWX 2.04,2013-01-31 19:39:00,
2013-01-31 14:44:00,23.9,-5.1,29.47,NW,304,1.0,4.9,27,0.00,,,-99.99,FreeWX 2.04,2013-01-31 19:44:00,
2013-01-31 14:49:00,23.9,-5.1,29.50,North,-999,0.0,6.7,27,0.00,,,-99.99,FreeWX 2.04,2013-01-31 19:49:00,
2013-01-31 14:54:00,23.7,-5.3,29.50,North,-999,0.0,4.0,27,0.00,,,-99.99,FreeWX 2.04,2013-01-31 19:54:00,
2013-01-31 14:59:00,23.9,-2.9,29.50,North,-999,0.0,3.6,30,0.00,,,-99.99,FreeWX 2.04,2013-01-31 19:59:00,
2013-01-31 15:04:00,23.4,-3.5,29.50,North,-999,0.0,5.4,30,0.00,,,-99.99,FreeWX 2.04,2013-01-31 20:04:00,
2013-01-31 15:09:00,23.5,-3.3,29.50,North,-999,0.0,0.0,30,0.00,,,-99.99,FreeWX 2.04,2013-01-31 20:09:00,
2013-01-31 15:14:00,23.7,-3.1,29.50,North,-999,0.0,0.0,30,0.00,,,-99.99,FreeWX 2.04,2013-01-31 20:14:00,
2013-01-31 15:19:00,23.7,-3.1,29.50,North,-999,0.0,4.9,30,0.00,,,-99.99,FreeWX 2.04,2013-01-31 20:19:00,
2013-01-31 15:24:00,23.5,-3.3,29.50,North,-999,0.0,0.0,30,0.00,,,-99.99,FreeWX 2.04,2013-01-31 20:24:00,
2013-01-31 15:29:00,23.5,-3.3,29.50,North,-999,0.0,4.9,30,0.00,,,-99.99,FreeWX 2.04,2013-01-31 20:29:00,
2013-01-31 15:34:00,23.7,-3.1,29.50,North,-999,0.0,7.8,30,0.00,,,-99.99,FreeWX 2.04,2013-01-31 20:34:00,
2013-01-31 15:39:00,23.0,-3.8,29.50,WNW,288,1.0,8.3,30,0.00,,,-99.99,FreeWX 2.04,2013-01-31 20:39:00,
2013-01-31 15:44:00,23.2,-3.6,29.50,North,-999,0.0,6.9,30,0.00,,,-99.99,FreeWX 2.04,2013-01-31 20:44:00,
2013-01-31 15:49:00,23.0,-3.8,29.50,WNW,296,1.0,6.7,30,0.00,,,-99.99,FreeWX 2.04,2013-01-31 20:49:00,
2013-01-31 15:54:00,23.0,-6.0,29.50,NW,311,1.0,4.9,27,0.00,,,-99.99,FreeWX 2.04,2013-01-31 20:54:00,
2013-01-31 15:59:00,22.8,-6.2,29.50,North,-999,0.0,7.4,27,0.00,,,-99.99,FreeWX 2.04,2013-01-31 20:59:00,
2013-01-31 16:04:00,22.8,-6.2,29.53,North,-999,0.0,9.2,27,0.00,,,-99.99,FreeWX 2.04,2013-01-31 21:04:00,
2013-01-31 16:09:00,22.5,-6.3,29.53,North,-999,0.0,4.9,27,0.00,,,-99.99,FreeWX 2.04,2013-01-31 21:09:00,
2013-01-31 16:14:00,22.3,-6.5,29.53,North,-999,0.0,8.7,27,0.00,,,-99.99,FreeWX 2.04,2013-01-31 21:14:00,
2013-01-31 16:19:00,22.3,-6.5,29.53,West,276,1.0,7.4,27,0.00,,,-99.99,FreeWX 2.04,2013-01-31 21:19:00,
2013-01-31 16:24:00,22.1,-6.7,29.53,WNW,285,1.0,6.7,27,0.00,,,-99.99,FreeWX 2.04,2013-01-31 21:24:00,
2013-01-31 16:29:00,22.1,-6.7,29.53,North,-999,0.0,3.6,27,0.00,,,-99.99,FreeWX 2.04,2013-01-31 21:29:00,
2013-01-31 16:34:00,22.1,-6.7,29.53,North,-999,0.0,6.9,27,0.00,,,-99.99,FreeWX 2.04,2013-01-31 21:34:00,
2013-01-31 16:39:00,21.7,-7.1,29.53,North,-999,0.0,4.9,27,0.00,,,-99.99,FreeWX 2.04,2013-01-31 21:39:00,
2013-01-31 16:44:00,21.4,-5.3,29.53,North,-999,0.0,7.8,30,0.00,,,-99.99,FreeWX 2.04,2013-01-31 21:44:00,
2013-01-31 16:49:00,21.2,-5.3,29.53,North,-999,0.0,4.5,30,0.00,,,-99.99,FreeWX 2.04,2013-01-31 21:49:00,
2013-01-31 16:54:00,21.2,-4.0,29.53,North,-999,0.0,4.9,32,0.00,,,-99.99,FreeWX 2.04,2013-01-31 21:54:00,
2013-01-31 16:59:00,20.8,-3.6,29.53,North,-999,0.0,5.8,33,0.00,,,-99.99,FreeWX 2.04,2013-01-31 21:59:00,
2013-01-31 17:04:00,20.7,-3.3,29.56,North,-999,0.0,2.7,34,0.00,,,-99.99,FreeWX 2.04,2013-01-31 22:04:00,
2013-01-31 17:09:00,20.5,-2.7,29.56,North,-999,0.0,5.4,35,0.00,,,-99.99,FreeWX 2.04,2013-01-31 22:09:00,
2013-01-31 17:14:00,20.1,-1.8,29.56,North,-999,0.0,5.4,37,0.00,,,-99.99,FreeWX 2.04,2013-01-31 22:14:00,
2013-01-31 17:19:00,19.9,-0.9,29.56,North,-999,0.0,0.0,39,0.00,,,-99.99,FreeWX 2.04,2013-01-31 22:19:00,
2013-01-31 17:24:00,19.4,-0.9,29.56,North,-999,0.0,2.7,40,0.00,,,-99.99,FreeWX 2.04,2013-01-31 22:24:00,
2013-01-31 17:29:00,19.0,-0.2,29.56,North,-999,0.0,0.0,42,0.00,,,-99.99,FreeWX 2.04,2013-01-31 22:29:00,
2013-01-31 17:34:00,18.9,0.1,29.56,North,-999,0.0,0.0,43,0.00,,,-99.99,FreeWX 2.04,2013-01-31 22:34:00,
2013-01-31 17:39:00,18.5,0.3,29.56,North,-999,0.0,0.0,44,0.00,,,-99.99,FreeWX 2.04,2013-01-31 22:39:00,
2013-01-31 17:44:00,18.3,0.1,29.56,North,-999,0.0,4.9,44,0.00,,,-99.99,FreeWX 2.04,2013-01-31 22:44:00,
2013-01-31 17:49:00,18.3,0.5,29.56,North,-999,0.0,3.6,45,0.00,,,-99.99,FreeWX 2.04,2013-01-31 22:49:00,
2013-01-31 17:54:00,18.5,0.7,29.56,North,-999,0.0,6.9,45,0.00,,,-99.99,FreeWX 2.04,2013-01-31 22:54:00,
2013-01-31 17:59:00,18.5,0.7,29.56,North,-999,0.0,6.7,45,0.00,,,-99.99,FreeWX 2.04,2013-01-31 22:59:00,
2013-01-31 18:04:00,18.5,0.7,29.59,North,-999,0.0,6.7,45,0.00,,,-99.99,FreeWX 2.04,2013-01-31 23:04:00,
2013-01-31 18:09:00,18.5,0.7,29.59,North,-999,0.0,4.9,45,0.00,,,-99.99,FreeWX 2.04,2013-01-31 23:09:00,
2013-01-31 18:14:00,18.5,0.7,29.59,North,-999,0.0,4.9,45,0.00,,,-99.99,FreeWX 2.04,2013-01-31 23:14:00,
2013-01-31 18:19:00,18.3,0.5,29.59,North,-999,0.0,5.8,45,0.00,,,-99.99,FreeWX 2.04,2013-01-31 23:19:00,
2013-01-31 18:24:00,18.3,0.5,29.59,North,-999,0.0,0.0,45,0.00,,,-99.99,FreeWX 2.04,2013-01-31 23:24:00,
2013-01-31 18:29:00,18.1,0.9,29.59,North,-999,0.0,0.0,46,0.00,,,-99.99,FreeWX 2.04,2013-01-31 23:29:00,
2013-01-31 18:34:00,18.0,0.7,29.59,North,-999,0.0,0.0,46,0.00,,,-99.99,FreeWX 2.04,2013-01-31 23:34:00,
2013-01-31 18:39:00,18.0,0.7,29.59,North,-999,0.0,0.0,46,0.00,,,-99.99,FreeWX 2.04,2013-01-31 23:39:00,
2013-01-31 18:44:00,17.8,0.5,29.59,North,-999,0.0,0.0,46,0.00,,,-99.99,FreeWX 2.04,2013-01-31 23:44:00,
2013-01-31 18:49:00,17.6,0.3,29.59,North,-999,0.0,0.0,46,0.00,,,-99.99,FreeWX 2.04,2013-01-31 23:49:00,
2013-01-31 18:54:00,17.4,0.7,29.59,North,-999,0.0,0.0,47,0.00,,,-99.99,FreeWX 2.04,2013-01-31 23:54:00,
2013-01-31 18:59:00,17.4,0.7,29.59,North,-999,0.0,3.1,47,0.00,,,-99.99,FreeWX 2.04,2013-01-31 23:59:00,
2013-01-31 19:04:00,17.4,0.7,29.62,North,-999,0.0,0.0,47,0.00,,,-99.99,FreeWX 2.04,2013-02-01 00:04:00,
2013-01-31 19:09:00,17.4,0.7,29.62,North,-999,0.0,0.0,47,0.00,,,-99.99,FreeWX 2.04,2013-02-01 00:09:00,
2013-01-31 19:14:00,17.2,0.5,29.62,North,-999,0.0,4.9,47,0.00,,,-99.99,FreeWX 2.04,2013-02-01 00:14:00,
2013-01-31 19:19:00,17.2,0.5,29.62,North,-999,0.0,0.0,47,0.00,,,-99.99,FreeWX 2.04,2013-02-01 00:19:00,
2013-01-31 19:24:00,17.2,0.1,29.62,North,-999,0.0,4.5,46,0.00,,,-99.99,FreeWX 2.04,2013-02-01 00:24:00,
2013-01-31 19:29:00,17.2,0.1,29.62,North,-999,0.0,0.0,46,0.00,,,-99.99,FreeWX 2.04,2013-02-01 00:29:00,
2013-01-31 19:34:00,17.2,0.1,29.62,North,-999,0.0,0.0,46,0.00,,,-99.99,FreeWX 2.04,2013-02-01 00:34:00,
2013-01-31 19:39:00,17.2,0.1,29.62,North,-999,0.0,0.0,46,0.00,,,-99.99,FreeWX 2.04,2013-02-01 00:39:00,
2013-01-31 19:44:00,17.2,0.1,29.62,North,-999,0.0,3.1,46,0.00,,,-99.99,FreeWX 2.04,2013-02-01 00:44:00,
2013-01-31 19:49:00,17.4,0.1,29.62,North,-999,0.0,3.1,46,0.00,,,-99.99,FreeWX 2.04,2013-02-01 00:49:00,
2013-01-31 19:54:00,17.4,0.1,29.62,North,-999,0.0,0.0,46,0.00,,,-99.99,FreeWX 2.04,2013-02-01 00:54:00,
2013-01-31 19:59:00,17.4,0.7,29.62,North,-999,0.0,0.0,47,0.00,,,-99.99,FreeWX 2.04,2013-02-01 00:59:00,
2013-01-31 20:04:00,17.2,0.5,29.62,North,-999,0.0,0.0,47,0.00,,,-99.99,FreeWX 2.04,2013-02-01 01:04:00,
2013-01-31 20:09:00,16.9,0.1,29.62,North,-999,0.0,0.0,47,0.00,,,-99.99,FreeWX 2.04,2013-02-01 01:09:00,
2013-01-31 20:14:00,16.5,-0.2,29.62,North,-999,0.0,0.0,47,0.00,,,-99.99,FreeWX 2.04,2013-02-01 01:14:00,
2013-01-31 20:19:00,16.2,-0.4,29.65,North,-999,0.0,0.0,47,0.00,,,-99.99,FreeWX 2.04,2013-02-01 01:19:00,
2013-01-31 20:24:00,15.8,-0.8,29.65,North,-999,0.0,0.0,47,0.00,,,-99.99,FreeWX 2.04,2013-02-01 01:24:00,
2013-01-31 20:29:00,15.6,-0.6,29.65,North,-999,0.0,7.8,48,0.00,,,-99.99,FreeWX 2.04,2013-02-01 01:29:00,
2013-01-31 20:34:00,15.3,-0.9,29.65,North,-999,0.0,4.0,48,0.00,,,-99.99,FreeWX 2.04,2013-02-01 01:34:00,
2013-01-31 20:39:00,15.3,-0.9,29.65,North,-999,0.0,0.0,48,0.00,,,-99.99,FreeWX 2.04,2013-02-01 01:39:00,
2013-01-31 20:44:00,15.3,-0.9,29.65,North,-999,0.0,0.0,48,0.00,,,-99.99,FreeWX 2.04,2013-02-01 01:44:00,
2013-01-31 20:49:00,15.1,-1.5,29.65,North,-999,0.0,6.3,47,0.00,,,-99.99,FreeWX 2.04,2013-02-01 01:49:00,
2013-01-31 20:54:00,15.1,-2.0,29.65,North,-999,0.0,0.0,46,0.00,,,-99.99,FreeWX 2.04,2013-02-01 01:54:00,
2013-01-31 20:59:00,14.9,-2.0,29.65,North,-999,0.0,0.0,46,0.00,,,-99.99,FreeWX 2.04,2013-02-01 01:59:00,
2013-01-31 21:04:00,14.9,-2.0,29.65,North,-999,0.0,0.0,46,0.00,,,-99.99,FreeWX 2.04,2013-02-01 02:04:00,
2013-01-31 21:09:00,14.9,-2.0,29.65,North,-999,0.0,0.0,46,0.00,,,-99.99,FreeWX 2.04,2013-02-01 02:09:00,
2013-01-31 21:14:00,14.9,-2.0,29.65,North,-999,0.0,0.0,46,0.00,,,-99.99,FreeWX 2.04,2013-02-01 02:14:00,
2013-01-31 21:19:00,14.9,-2.0,29.65,North,-999,0.0,0.0,46,0.00,,,-99.99,FreeWX 2.04,2013-02-01 02:19:00,